Home   Weather   Oral   Past weeks

Flag for Kazakhstan Past Weather in Oral, Kazakhstan — Yesterday and Last 2 Weeks

19 °F

Passing clouds.

Feels Like: 14 °F
Forecast: 21 / 36 °F
Wind: 3 mph from Northeast

Location: Uralsk

Current Time: Oct 24, 2016 at 4:59:32 AM

Latest Report: Oct 24, 2016 at 4:00 AM

Visibility: N/A

Pressure: 30.95 "Hg

Humidity: 93%

Dew Point: 18 °F

Location of OralLocation

Past Weather in Oral — Graph


Oral Temperature Yesterday

Maximum temperature yesterday: 39 °F (at 1:00 PM)
Minimum temperature yesterday: 30 °F (at 6:30 AM)
Average temperature yesterday: 35 °F

High & Low Weather Summary for the Past Weeks

High64 °F (Oct 9, 3:30 PM)100% (Oct 16, 6:00 AM)30.95 "Hg (Oct 16, 6:00 AM)
Low19 °F (Oct 22, 8:00 AM)32% (Oct 13, 1:30 PM)30.01 "Hg (Oct 10, 7:00 AM)
Average38 °F77%30.35 "Hg
* Reported Oct 9 3:00 AM — Oct 24 3:00 AM, Oral, Weather by CustomWeather, © 2016

Note: Actual official high and low records may vary slightly from our data, if they occured in-between our weather recording intervals... More about our weather records


Oral Weather History for the Previous 24 Hours

Scroll right to see more
Time TempWeatherWind HumidityBarometerVisibility
3:00 AM
Mon, Oct 24
25 °FPassing clouds.6 mph80%30.95 "HgN/A
2:00 AM28 °FPassing clouds.10 mph74%30.95 "HgN/A
1:00 AM30 °FPassing clouds.13 mph75%30.92 "HgN/A
12:30 AM32 °FPassing clouds.10 mph69%30.92 "HgN/A
12:00 AM32 °FPassing clouds.15 mph75%30.92 "HgN/A
11:30 PM
Sun, Oct 23
34 °FPassing clouds.13 mph81%30.89 "HgN/A
11:00 PM34 °FPassing clouds.8 mph87%30.89 "HgN/A
10:30 PM34 °FPassing clouds.8 mph87%30.89 "HgN/A
10:00 PM34 °FPassing clouds.8 mph87%30.89 "HgN/A
9:30 PM34 °FPassing clouds.8 mph81%30.86 "HgN/A
9:00 PM34 °FPartly cloudy.8 mph81%30.86 "HgN/A
8:30 PM32 °FPartly cloudy.6 mph87%30.86 "HgN/A
8:00 PM32 °FPartly cloudy.6 mph80%30.86 "HgN/A
7:30 PM30 °FPartly cloudy.8 mph80%30.86 "HgN/A
7:00 PM30 °FPartly cloudy.8 mph75%30.83 "HgN/A
6:30 PM34 °FPartly cloudy.6 mph65%30.83 "HgN/A
6:00 PM37 °FPartly sunny.6 mph56%30.83 "HgN/A
5:30 PM37 °FPartly sunny.6 mph60%30.83 "HgN/A
5:00 PM39 °FPartly sunny.6 mph52%30.83 "HgN/A
4:30 PM39 °FPartly sunny.6 mph56%30.83 "HgN/A
4:00 PM39 °FPartly sunny.6 mph56%30.80 "HgN/A
3:30 PM39 °FPartly sunny.8 mph61%30.80 "HgN/A
3:00 PM39 °FOvercast.6 mph61%30.80 "HgN/A
2:30 PM39 °FOvercast.3 mph61%30.80 "HgN/A
2:00 PM39 °FOvercast.3 mph61%30.80 "HgN/A
1:30 PM39 °FOvercast.6 mph65%30.80 "HgN/A
1:00 PM39 °FOvercast.3 mph61%30.80 "HgN/A
12:30 PM37 °FOvercast.3 mph70%30.80 "HgN/A
12:00 PM37 °FMostly cloudy.1 mph75%30.80 "HgN/A
11:30 AM36 °FLight rain. Mostly cloudy.1 mph81%30.80 "HgN/A
11:00 AM36 °FMostly cloudy.1 mph81%30.80 "HgN/A
10:30 AM36 °FLight rain. Mostly cloudy.3 mph87%30.80 "HgN/A
10:00 AM34 °FLight rain. Mostly cloudy.6 mph87%30.80 "HgN/A
9:30 AM34 °FSunny.6 mph81%30.77 "Hg10 mi
9:00 AM32 °FSunny.8 mph87%30.77 "Hg10 mi
8:30 AM32 °FSunny.3 mph87%30.77 "Hg10 mi
8:00 AM30 °FClear.3 mph93%30.77 "Hg10 mi
7:30 AM30 °FClear.3 mph93%30.77 "Hg10 mi
7:00 AM30 °FClear.3 mph86%30.77 "Hg10 mi
6:30 AM30 °FClear.3 mph86%30.77 "Hg10 mi
6:00 AM32 °FClear.3 mph80%30.77 "Hg10 mi
5:30 AM32 °FClear.1 mph80%30.77 "Hg10 mi
5:00 AM32 °FClear.1 mph80%30.77 "Hg10 mi
4:00 AM34 °FClear.3 mph75%30.77 "Hg10 mi
Weather by CustomWeather, © 2016

See weather overviewHow to use our weather pages